Tracking 29892 objects as of 21-Nov-2024
HD Live streaming from Space Station
objects crossing your sky now

STARLINK-3911

Track STARLINK-3911 now!
10-day predictions
STARLINK-3911 is classified as:


NORAD ID: 52565
Int'l Code: 2022-051AJ
Perigee: 545.4 km
Apogee: 548.1 km
Inclination: 53.2 °
Period: 95.4 minutes
Semi major axis: 6917 km
RCS: Unknown
Launch date: May 13, 2022
Source: United States (US)
Launch site: AIR FORCE WESTERN TEST RANGE (AFWTR)
Your satellite tracking list
Your tracking list is empty




NASA's NSSDC Master Catalog

Two Line Element Set (TLE):
1 52565U 22051AJ  24325.76327595 -.00007702  00000-0 -46581-3 0  9998
2 52565  53.2175  86.6545 0001939 122.8039 237.3140 15.08877719140030
Source of the keplerian elements: AFSPC